Погода в Ныре

Россия / Кировская область     57°29′25″N   47°57′09″E
темп.,
°C
ветер,
м/с
пор.,
м/с
влажн.,
%
обл.,
%
осадки,
мм/ч
давл.,
гПа
погр.,
м
26 февраля, пт
пт2600:00−20юв489699 0.0 1018227
03:00−21вюв489792 0.0 1019157
06:00−23юв369749 0.0 1017132
09:00−20юв599437 0.0 1016287
12:00−16юв6109292 0.0 1014458
15:00−14юв7129096 0.1 1011611
18:00−15юв81589100 0.0 1006626
21:00−14юв81594100 1.5 1003654
27 февраля, сб
сб2700:00−14вюв81394100 4.0 1000679
03:00−15вюв71294100 5.8 1000544
06:00−15в61194100 0.9 999527
09:00−15всв61093100 1.3 1000583
12:00−13св6989100 0.2 1002652
15:00−12св6989100 0.3 1004734
18:00−14ссв4109398 0.1 1006311
21:00−16ссв599592 0.1 1008254
28 февраля, вс
вс2800:00−19с479740 0.0 1009120
03:00−20с359931 0.0 101186
06:00−22с349958 0.0 101175
09:00−20с369645 0.0 1012219
12:00−16с469162 0.0 1013397
15:00−14ссв468979 0.0 1014501
18:00−19с339557 0.0 101521
21:00−20ссв239728 0.0 101820
1 марта, пн
пн100:00−22ссв12990 0.0 101920
03:00−22ссз221000 0.0 102120
06:00−23сз111000 0.0 102120
09:00−19зюз11940 0.0 102268
12:00−15юз248920 0.0 1021261
15:00−12юз369131 0.0 1020333
18:00−15ююз489756 0.0 1017138
21:00−14ююз5109676 0.1 1015261
2 марта, вт
вт200:00−13ююз61295100 0.0 1011281
03:00−11ююз61294100 0.6 1007391
06:00−9ююз61194100 1.1 1003422
09:00−6ююз5995100 2.3 1001385
12:00−1юз3598100 1.0 1000285
15:000ссз5899100 1.4 1000586
18:00−2сз489297 0.3 1001206
21:00−5ссз359197 0.3 100299